Tracking 31027 objects as of 19-Jul-2025
HD Live streaming from Space Station
objects crossing your sky now

THORAD AGENA D DEB

Track THORAD AGENA D DEB now!
10-day predictions


NORAD ID: 6216
Int'l Code: 1970-025NE
Perigee: 612.9 km
Apogee: 925.6 km
Inclination: 99.0 °
Period: 100.1 minutes
Semi major axis: 7140 km
RCS: 0.0784 m2 (small)
Launch date: April 8, 1970
Source: United States (US)
Launch site: AIR FORCE WESTERN TEST RANGE (AFWTR)

Note: This is SATELLITE DEBRIS
Your satellite tracking list
STARLINK-1749
Track 1 satellite(s)




NASA's NSSDC Master Catalog

Two Line Element Set (TLE):
1  6216U 70025NE  25199.88746581  .00001572  00000-0  40020-3 0  9996
2  6216  99.0346  78.9775 0219018 336.6269  22.5075 14.38912171848397
Source of the keplerian elements: AFSPC